{"data":{"norad_id":56424,"epoch":"2026-05-24T23:15:37.553760Z","epoch_age_seconds":77430,"freshness":"FRESH","line1":"1 56424U 23061BC  26144.96918465  .00000734  00000+0  37058-4 0  9998","line2":"2 56424  43.0036 108.9387 0001425 270.4657  89.6031 15.26741587168624","mean_motion":15.26741587,"eccentricity":0.0001425,"inclination_deg":43.0036,"raan_deg":108.9387,"arg_perigee_deg":270.4657,"mean_anomaly_deg":89.6031,"bstar":3.7058e-5,"rev_number":16862,"period_min":94.31851547514,"perigee_km":484.58267805509,"apogee_km":486.53883191527,"semimajor_km":6863.6977549852,"source":"CELESTRAK","updated_at":"2026-05-25T13:38:18.064382Z"}}